• En España
  • Lista de países
  • Para 7 días
  • Temperatura del agua
  • Mapa Satelital
  • El tiempo en el mapa
  • Informadores
  • user-avatar
    Iniciar sesión

    Tiempo cada hora Silves

    Hoy, 20 Septiembre, Jueves

    Tiempo Temperatura Precipitaciones Viento Presión Humedad
    00:00 +24°C° 0 mm 3 mps 758 mmHg 45%
    01:00 +23°C° 0 mm 2 mps 757 mmHg 46%
    02:00 +23°C° 0 mm 2 mps 757 mmHg 48%
    03:00 +23°C° 0 mm 2 mps 757 mmHg 49%
    04:00 +21°C° 0 mm 2 mps 757 mmHg 50%
    05:00 +21°C° 0 mm 2 mps 758 mmHg 50%
    06:00 +24°C° 0 mm 2 mps 758 mmHg 44%
    07:00 +27°C° 0 mm 1 mps 758 mmHg 38%
    08:00 +29°C° 0 mm 1 mps 758 mmHg 32%
    09:00 +31°C° 0 mm 1 mps 758 mmHg 30%
    10:00 +34°C° 0 mm 2 mps 758 mmHg 27%
    11:00 +35°C° 0 mm 2 mps 758 mmHg 29%
    12:00 +35°C° 0 mm 3 mps 758 mmHg 29%
    13:00 +35°C° 0 mm 3 mps 757 mmHg 28%
    14:00 +36°C° 0 mm 3 mps 757 mmHg 28%
    15:00 +34°C° 0 mm 4 mps 757 mmHg 32%
    16:00 +32°C° 0 mm 4 mps 757 mmHg 35%
    17:00 +30°C° 0 mm 4 mps 757 mmHg 39%
    18:00 +28°C° 0 mm 4 mps 757 mmHg 46%
    19:00 +26°C° 0 mm 4 mps 757 mmHg 53%
    20:00 +23°C° 0 mm 4 mps 757 mmHg 59%
    21:00 +23°C° 0 mm 4 mps 757 mmHg 60%
    22:00 +22°C° 0 mm 4 mps 757 mmHg 60%
    23:00 +22°C° 0 mm 4 mps 757 mmHg 61%

    Mañana, 21 Septiembre, Viernes

    Tiempo Temperatura Precipitaciones Viento Presión Humedad
    00:00 +21°C° 0 mm 4 mps 757 mmHg 63%
    01:00 +21°C° 0 mm 4 mps 757 mmHg 66%
    02:00 +20°C° 0 mm 4 mps 757 mmHg 68%
    03:00 +20°C° 0 mm 4 mps 757 mmHg 72%
    04:00 +19°C° 0 mm 4 mps 757 mmHg 76%
    05:00 +19°C° 0 mm 4 mps 757 mmHg 80%
    06:00 +21°C° 0 mm 4 mps 757 mmHg 72%
    07:00 +22°C° 0 mm 4 mps 758 mmHg 64%
    08:00 +25°C° 0 mm 4 mps 758 mmHg 56%
    09:00 +28°C° 0 mm 3 mps 758 mmHg 46%
    10:00 +31°C° 0 mm 3 mps 758 mmHg 36%
    11:00 +35°C° 0 mm 3 mps 758 mmHg 26%
    12:00 +36°C° 0 mm 3 mps 757 mmHg 25%
    13:00 +36°C° 0 mm 4 mps 757 mmHg 24%
    14:00 +37°C° 0 mm 4 mps 757 mmHg 23%
    15:00 +35°C° 0 mm 4 mps 757 mmHg 27%
    16:00 +34°C° 0 mm 5 mps 756 mmHg 31%
    17:00 +32°C° 0 mm 5 mps 756 mmHg 34%
    18:00 +29°C° 0 mm 5 mps 757 mmHg 40%
    19:00 +27°C° 0 mm 4 mps 757 mmHg 46%
    20:00 +25°C° 0 mm 4 mps 758 mmHg 52%
    21:00 +25°C° 0 mm 4 mps 758 mmHg 54%
    22:00 +23°C° 0 mm 4 mps 758 mmHg 56%
    23:00 +22°C° 0 mm 4 mps 758 mmHg 58%

    Pasado mañana, 22 Septiembre, Sábado

    Tiempo Temperatura Precipitaciones Viento Presión Humedad
    00:00 +22°C° 0 mm 4 mps 758 mmHg 60%
    01:00 +22°C° 0 mm 4 mps 758 mmHg 62%
    02:00 +21°C° 0 mm 3 mps 758 mmHg 64%
    03:00 +21°C° 0 mm 3 mps 758 mmHg 65%
    04:00 +21°C° 0 mm 3 mps 758 mmHg 66%
    05:00 +21°C° 0 mm 3 mps 758 mmHg 67%
    06:00 +24°C° 0 mm 3 mps 758 mmHg 57%
    07:00 +27°C° 0 mm 3 mps 758 mmHg 47%
    08:00 +30°C° 0 mm 3 mps 758 mmHg 37%
    09:00 +34°C° 0 mm 3 mps 758 mmHg 30%
    10:00 +36°C° 0 mm 3 mps 759 mmHg 24%
    11:00 +39°C° 0 mm 3 mps 759 mmHg 18%
    12:00 +39°C° 0 mm 3 mps 758 mmHg 17%
    13:00 +39°C° 0 mm 3 mps 758 mmHg 17%
    14:00 +39°C° 0 mm 3 mps 758 mmHg 16%
    15:00 +37°C° 0 mm 3 mps 758 mmHg 20%
    16:00 +36°C° 0 mm 3 mps 758 mmHg 24%
    17:00 +34°C° 0 mm 3 mps 758 mmHg 29%
    18:00 +31°C° 0 mm 3 mps 758 mmHg 35%
    19:00 +29°C° 0 mm 3 mps 759 mmHg 42%
    20:00 +27°C° 0 mm 2 mps 759 mmHg 48%
    21:00 +26°C° 0 mm 2 mps 759 mmHg 48%
    22:00 +26°C° 0 mm 3 mps 759 mmHg 48%
    23:00 +26°C° 0 mm 3 mps 759 mmHg 48%

    23 Septiembre, Domingo

    Tiempo Temperatura Precipitaciones Viento Presión Humedad
    00:00 +26°C° 0 mm 2 mps 758 mmHg 48%
    01:00 +25°C° 0 mm 2 mps 758 mmHg 48%
    02:00 +25°C° 0 mm 2 mps 758 mmHg 48%
    03:00 +25°C° 0 mm 2 mps 758 mmHg 49%
    04:00 +24°C° 0 mm 2 mps 758 mmHg 50%
    05:00 +24°C° 0 mm 2 mps 758 mmHg 51%
    06:00 +26°C° 0 mm 2 mps 758 mmHg 45%
    07:00 +29°C° 0 mm 2 mps 759 mmHg 39%
    08:00 +31°C° 0 mm 2 mps 759 mmHg 33%
    09:00 +35°C° 0 mm 2 mps 759 mmHg 28%
    10:00 +37°C° 0 mm 3 mps 759 mmHg 24%
    11:00 +40°C° 0 mm 3 mps 759 mmHg 19%
    12:00 +40°C° 0 mm 3 mps 758 mmHg 19%
    13:00 +40°C° 0 mm 3 mps 758 mmHg 19%
    14:00 +40°C° 0 mm 3 mps 758 mmHg 18%
    15:00 +38°C° 0 mm 3 mps 757 mmHg 22%
    16:00 +36°C° 0 mm 3 mps 757 mmHg 26%
    17:00 +34°C° 0 mm 3 mps 757 mmHg 29%
    18:00 +31°C° 0 mm 3 mps 758 mmHg 35%
    19:00 +29°C° 0 mm 3 mps 758 mmHg 41%
    20:00 +27°C° 0 mm 3 mps 758 mmHg 47%
    21:00 +27°C° 0 mm 2 mps 758 mmHg 49%
    22:00 +26°C° 0 mm 2 mps 758 mmHg 50%
    23:00 +26°C° 0 mm 2 mps 758 mmHg 52%

    24 Septiembre, Lunes

    Tiempo Temperatura Precipitaciones Viento Presión Humedad
    00:00 +25°C° 0 mm 2 mps 758 mmHg 52%
    01:00 +25°C° 0 mm 1 mps 758 mmHg 53%
    02:00 +24°C° 0 mm 1 mps 757 mmHg 54%
    03:00 +24°C° 0 mm 1 mps 757 mmHg 53%
    04:00 +24°C° 0 mm 1 mps 757 mmHg 53%
    05:00 +24°C° 0 mm 2 mps 757 mmHg 52%
    06:00 +27°C° 0 mm 2 mps 757 mmHg 44%
    07:00 +29°C° 0 mm 2 mps 757 mmHg 37%
    08:00 +32°C° 0 mm 1 mps 757 mmHg 29%
    09:00 +36°C° 0 mm 2 mps 757 mmHg 24%
    10:00 +38°C° 0 mm 2 mps 757 mmHg 19%
    11:00 +42°C° 0 mm 3 mps 757 mmHg 14%
    12:00 +40°C° 0 mm 3 mps 757 mmHg 14%
    13:00 +40°C° 0 mm 3 mps 756 mmHg 14%
    14:00 +40°C° 0 mm 3 mps 756 mmHg 14%
    15:00 +38°C° 0 mm 3 mps 756 mmHg 19%
    16:00 +36°C° 0 mm 2 mps 756 mmHg 23%
    17:00 +34°C° 0 mm 2 mps 756 mmHg 27%
    18:00 +31°C° 0 mm 2 mps 756 mmHg 32%
    19:00 +29°C° 0 mm 2 mps 757 mmHg 36%
    20:00 +27°C° 0 mm 2 mps 757 mmHg 41%
    21:00 +27°C° 0 mm 2 mps 757 mmHg 40%
    22:00 +27°C° 0 mm 2 mps 757 mmHg 39%
    23:00 +27°C° 0 mm 2 mps 757 mmHg 39%

    25 Septiembre, Martes

    Tiempo Temperatura Precipitaciones Viento Presión Humedad
    00:00 +27°C° 0 mm 2 mps 756 mmHg 40%
    01:00 +26°C° 0 mm 2 mps 756 mmHg 41%
    02:00 +26°C° 0 mm 2 mps 756 mmHg 43%
    03:00 +26°C° 0 mm 2 mps 756 mmHg 44%
    04:00 +26°C° 0 mm 2 mps 756 mmHg 45%
    05:00 +25°C° 0 mm 2 mps 756 mmHg 46%
    06:00 +28°C° 0 mm 3 mps 756 mmHg 40%
    07:00 +30°C° 0 mm 3 mps 756 mmHg 33%
    08:00 +34°C° 0 mm 4 mps 756 mmHg 27%
    09:00 +35°C° 0 mm 5 mps 756 mmHg 25%
    10:00 +37°C° 0 mm 5 mps 756 mmHg 22%
    11:00 +40°C° 0 mm 6 mps 756 mmHg 20%
    12:00 +39°C° 0 mm 6 mps 756 mmHg 20%
    13:00 +39°C° 0 mm 6 mps 756 mmHg 21%
    14:00 +39°C° 0 mm 5 mps 755 mmHg 22%
    15:00 +36°C° 0 mm 5 mps 755 mmHg 27%
    16:00 +34°C° 0 mm 4 mps 755 mmHg 32%
    17:00 +33°C° 0 mm 4 mps 755 mmHg 37%
    18:00 +30°C° 0 mm 4 mps 756 mmHg 44%
    19:00 +28°C° 0 mm 3 mps 756 mmHg 51%
    20:00 +26°C° 0 mm 3 mps 757 mmHg 57%
    21:00 +26°C° 0 mm 3 mps 757 mmHg 59%
    22:00 +26°C° 0 mm 3 mps 757 mmHg 61%
    23:00 +26°C° 0 mm 3 mps 757 mmHg 63%
    Mostrar más